Regional Weather Roundup
Issued by NWS

Home | Current Version | Previous Version | Text Only | Print | Product List | Glossary Off
Versions: 1 2 3 4 5 6 7 8 9 10 11 12 13 14 15 16 17 18 19 20 21 22 23 24 25 26 27

000
ASUS45 KSLC 250210
RWRUT

UTAH REGIONAL WEATHER ROUNDUP
NATIONAL WEATHER SERVICE SALT LAKE CITY UT
800 PM MDT TUE APR 24 2018

UTZ001>011-023>025-250300-

NORTHERN UTAH

CITY           SKY/WX    TMP DP  RH WIND       PRES   REMARKS
BRIGHAM CITY   CLEAR     63  23  22 NE14      30.25S
HILL AFB       CLEAR     58  30  34 NW8       30.24S
LOGAN          CLEAR     55  36  48 N10       30.26S
OGDEN          CLEAR     59  29  31 NW7       30.23R
SALT LAKE CITY CLEAR     62  35  36 NW13      30.23R
TOOELE VALLEY  CLEAR     55  34  44 N5        30.25S
WENDOVER       CLEAR     61  19  19 E10       30.25S
HEBER CITY       N/A     52  21  30 N8        30.24R
WEST JORDAN    CLEAR     56  37  50 NW9       30.24S

$$

UTZ011>015-024>027-250300-

CENTRAL/NORTHEAST UTAH

CITY           SKY/WX    TMP DP  RH WIND       PRES   REMARKS
PROVO AIRPORT  CLEAR     59  37  44 NW13      30.22S
MOAB/CANYONLAN CLEAR     63  15  15 E22G33    30.14R
DELTA          CLEAR     61  23  23 NW9       30.20S
PRICE          CLEAR     57  19  22 NE17G28   30.21S
RICHFIELD      CLEAR     61  21  21 NE13      30.20R
ROOSEVELT      CLEAR     55  21  26 E12       30.30R
VERNAL         CLEAR     52  20  28 NE10      30.30R

$$

UTZ013>016-019>022-027-250300-

SOUTHERN UTAH

CITY           SKY/WX    TMP DP  RH WIND       PRES   REMARKS
BRYCE CANYON   PTCLDY    58  23  26 NW8       30.25R
CEDAR CITY     CLEAR     61  24  24 N10       30.18R
MILFORD        CLEAR     61  21  21 MISG      30.18S
ST GEORGE      CLEAR     80  27  14 NE20G25   29.97S
HANKSVILLE     CLEAR     68  16  13 NE17G25   30.13R
KANAB          CLEAR     72  23  16 W6        30.11R
BLANDING         N/A     64  22  20 N13G18    30.19R

$$

REGIONAL REPORTS     COLORADO/ARIZONA

CITY           SKY/WX    TMP DP  RH WIND       PRES   REMARKS
CRAIG, CO      CLEAR     42  22  44 W12       30.33R
GRAND JUNCTION CLEAR     58  18  21 NE20      30.21R
RIFLE, CO      CLEAR     53  19  26 N14G22    30.26R
MONTROSE, CO   PTCLDY    57  16  20 NW17      30.23R
CORTEZ, CO     PTCLDY    65  22  19 N15G21    30.11R
COLORADO CITY    N/A     72  25  17 NW7       30.11S
PAGE, AZ       PTCLDY    78  24  13 NE12      29.99R
GRAND CANYON   CLEAR     67  14  13 NW3       30.16S
KINGMAN, AZ    MOCLDY    82  20  10 NW7       29.98S
FLAGSTAFF, AZ  PTCLDY    65  19  17 SW13      30.18R

$$

REGIONAL REPORTS    NEVADA/IDAHO/WYOMING

CITY           SKY/WX    TMP DP  RH WIND       PRES   REMARKS
LAS VEGAS, NV  CLOUDY    88  24  10 NE7       29.89S
ELY, NY        CLEAR     61  15  16 N12       30.20S
ELKO, NV       CLEAR     64  15  15 NE10      30.17F
POCATELLO, ID  CLEAR     56  34  43 N8        30.28F
BURLEY, ID     CLEAR     58  32  37 NE8       30.23F
FORT BRIDGER,    N/A     46  17  31 E6        30.39S
EVANSTON, WY   CLEAR     47  19  33 E13       30.34S
ROCK SPRINGS,  CLEAR     39  18  42 E12       30.39S WCI  32
KEMMERER, WY   CLEAR     43  18  36 E6        30.37S

$$




USA.gov is the U.S. government's official web portal to all federal, state and local government web resources and services.